Regional Weather Roundup
Issued by NWS

Home | Current Version | Previous Version | Text Only | Print | Product List | Glossary Off
Versions: 1 2 3 4 5 6 7 8 9 10 11 12 13 14 15 16 17 18 19 20 21 22 23 24 25 26 27 28 29 30 31 32 33 34 35 36 37 38 39 40 41 42 43 44 45 46 47 48 49 50

000
ASUS43 KTOP 282008
RWRKS

WEATHER ROUNDUP FOR KANSAS
NATIONAL WEATHER SERVICE GOODLAND KS
200 PM CST WED JAN 28 2015

NOTE:  "FAIR" INDICATES FEW OR NO CLOUDS BELOW 12,000 FEET WITH NO
SIGNIFICANT WEATHER AND/OR OBSTRUCTIONS TO VISIBILITY.

KSZ001>006-013>018-027>032-041>047-282100-
NORTHWEST KANSAS

CITY           SKY/WX    TMP DP  RH WIND       PRES   REMARKS
GOODLAND       SUNNY     66  26  22 NW36G45   29.92F
HAYS           MOSUNNY   70  30  23 NW29G39   29.81S
HILL CITY      SUNNY     71  31  22 NW26G40   29.82F
RUSSELL        MOSUNNY   72  32  23 NW25G33   29.77F
$$

KSZ061>065-074>080-084>089-282100-
SOUTHWEST KANSAS

CITY           SKY/WX    TMP DP  RH WIND       PRES   REMARKS
DODGE CITY     MOSUNNY   71  27  19 NW23G33   29.89R
ELKHART          N/A     68  30  24 NW9         N/A
GARDEN CITY    SUNNY     69  27  20 NW26G36   29.92S
LIBERAL        SUNNY     72  34  25 N22       29.96F
PRATT          MOSUNNY   70  30  23 N20G26    29.84S
$$

KSZ066>073-081>083-090>101-282100-
SOUTHEAST KANSAS

CITY           SKY/WX    TMP DP  RH WIND       PRES   REMARKS
CHANUTE        PTSUNNY   73  39  29 S22G30    29.80F
COFFEYVILLE    MOSUNNY   72  40  31 S23G30    29.84F
HUTCHINSON     PTSUNNY   68  34  28 W14       29.79F
MEDICINE LODGE   N/A     69  34  27 N9        29.82F
NEWTON         PTSUNNY   66  36  32 W16G24    29.79F
PARSONS        PTSUNNY   73  40  30 S18G31    29.83F
WICHITA INTL   PTSUNNY   70  38  31 SW17      29.78F
WICHITA JABRA  PTSUNNY   69  37  30 SW21G26   29.77F
WICHITA MCCONL PTSUNNY   70  39  33 S20G25    29.78F
WINFIELD       PTSUNNY   75  31  19 SW24G30   29.82F
$$

KSZ007>012-019>026-033>040-048>060-102>105-282100-
NORTHEAST KANSAS

CITY           SKY/WX    TMP DP  RH WIND       PRES   REMARKS
CONCORDIA      MOSUNNY   65  34  31 NW10      29.72F
EMPORIA        PTSUNNY   72  37  28 SW24G31   29.76F
LAWRENCE       PTSUNNY   73  37  27 S13       29.74F
MANHATTAN      PTSUNNY   69  38  32 SW16G25   29.72F
MARYSVILLE     PTSUNNY   64  37  36 SW12      29.72S
OLATHE IND     MOSUNNY   72  38  29 S14G26    29.76F
OLATHE EXE     MOSUNNY   72  38  29 S18G29    29.76F
SALINA         PTSUNNY   67  34  29 NW10      29.76F
TOPEKA BILLARD PTSUNNY   75  37  25 S13G23    29.72F
TOPEKA FORBES  PTSUNNY   77  36  22 S21G28    29.71F
$$


USA.gov is the U.S. government's official web portal to all federal, state and local government web resources and services.